Wind_Speed
12 12 12 11 12 12 12 12 13 12 12 12 13 13 14 14 14 15 15 15 16 16 17 18 18 19 19 19 20 20 20 20 21 21 21 21 21 22
13 13 11 11 12 12 13 12 12 12 13 14 14 14 14 15 15 15 16 16 17 18 19 19 19 20 20 20 20 21 21 21 21 22 23 23 24 24
13 13 12 12 12 12 13 13 13 13 14 14 14 15 15 16 16 16 17 17 18 19 19 20 20 20 21 21 21 21 22 22 23 23 24 25 25 25
14 14 13 14 14 14 14 14 15 15 15 15 15 16 17 18 18 19 19 20 20 20 20 21 21 21 21 22 22 23 23 24 24 24 25 25 26 26
15 15 15 15 15 15 15 15 16 17 17 17 18 18 18 19 20 20 21 21 21 21 21 21 21 22 22 22 22 23 23 23 24 24 25 25 26 26
16 16 16 16 16 17 17 18 18 19 19 19 19 19 20 21 22 22 22 23 23 23 22 22 22 22 23 23 23 24 24 24 25 25 26 26 27 27
17 17 17 17 17 17 18 19 19 19 19 20 20 20 21 22 23 23 24 24 23 23 23 23 24 24 24 25 25 25 25 26 26 27 27 27 27 27
18 18 18 18 19 19 20 20 21 20 21 21 21 21 21 22 22 23 23 23 23 24 24 24 24 25 25 25 25 26 26 27 27 27 27 27 27 28
19 20 20 20 21 21 21 21 21 22 22 22 22 22 22 23 23 23 23 23 24 24 24 24 24 25 26 26 27 27 27 28 28 28 28 28 28 29
20 21 21 22 22 22 22 22 22 22 21 22 22 22 22 23 24 24 23 24 23 23 24 24 25 26 26 27 27 27 28 28 28 29 29 29 29 29
22 22 23 23 23 23 23 22 21 22 22 22 22 23 23 23 24 24 24 24 24 24 25 25 26 27 27 28 28 28 28 28 29 29 29 30 30 30
23 23 23 23 23 23 23 22 22 22 23 23 23 24 24 25 25 25 25 25 25 25 26 26 26 27 27 28 28 28 28 29 30 30 30 30 31 31
24 25 25 24 24 24 24 24 24 23 23 24 25 25 25 26 26 25 25 26 26 26 26 27 28 28 28 28 28 29 29 30 30 30 30 31 31 31
25 25 25 25 25 25 25 25 25 25 25 25 26 26 26 26 26 27 27 27 26 27 28 28 28 29 29 29 30 30 30 31 30 30 31 31 31 32
27 26 26 26 26 26 26 26 26 25 25 26 26 26 27 27 27 27 27 26 27 28 28 28 28 29 29 30 30 31 31 31 31 30 30 31 32 32
27 26 26 26 27 27 27 26 26 26 26 26 26 27 27 27 27 27 27 27 28 28 28 28 29 29 29 30 30 31 31 31 31 31 31 32 32 33
27 26 25 25 25 26 26 27 27 27 27 27 27 27 27 27 27 27 27 27 28 28 28 28 29 29 29 30 30 31 31 32 32 33 33 33 34 34
27 26 25 25 25 26 26 27 28 28 27 27 27 28 27 27 26 27 28 28 28 28 28 28 29 29 30 30 31 31 32 32 33 33 34 34 34 35
26 26 26 26 26 26 27 27 27 27 27 28 28 27 27 27 27 27 28 28 29 29 29 29 29 30 31 31 32 33 33 34 34 34 34 33 34 34
27 27 27 26 26 26 27 27 27 27 27 27 26 27 27 27 28 28 28 29 29 30 30 30 31 31 31 31 32 33 33 33 34 34 34 34 33 33
28 27 27 27 27 26 27 27 27 27 27 27 27 27 27 27 28 29 29 30 30 30 30 30 31 31 31 31 31 32 33 33 34 34 34 34 33 33
28 27 27 27 27 27 28 28 28 27 26 26 26 27 28 28 29 29 30 30 30 29 30 30 31 31 31 31 32 32 32 32 33 34 34 34 33 33
28 28 28 28 28 28 28 28 27 26 26 26 27 27 27 28 29 30 30 30 29 30 30 31 31 32 32 32 33 33 32 32 32 32 33 33 33 33
Wind_Direction
309 308 306 303 302 301 299 296 296 294 291 286 288 286 286 286 286 287 289 291 292 292 292 292 292 291 289 288 288 288 287 285 280 279 277 277 277 275
312 309 309 311 308 302 303 302 298 295 292 288 286 285 287 289 287 288 290 292 293 292 291 292 292 292 291 290 289 288 287 285 283 281 280 279 277 277
317 315 313 308 306 304 301 297 294 294 294 291 290 290 289 290 290 290 289 290 292 294 294 294 294 294 293 292 290 288 287 287 284 282 282 282 281 279
317 313 312 309 304 301 299 298 295 293 292 291 290 292 292 291 293 293 290 290 291 293 294 294 295 296 295 292 289 288 287 287 286 284 282 280 279 279
316 312 310 308 305 302 301 299 298 295 294 293 289 289 291 292 292 293 294 293 292 292 292 294 295 296 297 295 294 293 291 290 289 286 285 284 282 281
314 312 309 307 304 300 299 298 297 295 294 296 295 290 290 293 295 295 294 293 292 292 294 294 295 296 296 296 295 294 293 292 291 290 287 285 283 282
315 315 313 309 305 302 298 297 296 295 296 297 297 295 293 294 295 295 293 293 293 292 293 294 293 294 294 296 295 294 294 293 292 292 289 287 285 283
311 312 312 310 310 306 300 297 296 294 295 296 297 297 297 298 297 299 297 296 294 294 293 293 293 294 295 295 297 297 296 295 293 292 291 288 285 284
308 307 307 307 308 308 305 303 301 299 296 295 297 298 299 299 298 299 300 298 296 295 295 295 294 296 297 297 296 296 296 296 295 294 292 290 287 286
307 306 307 307 307 306 307 305 304 301 300 298 297 298 299 299 299 300 301 300 299 297 297 297 297 296 296 297 297 297 296 295 294 293 292 291 290 287
307 306 306 307 308 308 306 304 304 303 302 300 298 299 300 300 301 301 300 301 301 300 300 299 298 298 298 298 298 297 296 296 296 294 292 291 290 289
306 306 306 305 307 308 306 304 303 302 301 301 302 301 300 300 300 299 299 300 301 300 298 298 299 299 298 298 299 298 297 297 297 296 294 292 291 290
306 306 305 304 305 305 304 302 301 299 298 299 300 301 301 301 300 299 299 300 301 301 300 298 298 298 298 298 298 297 297 297 297 296 295 294 293 291
306 306 305 305 304 304 303 301 300 299 298 297 298 298 300 301 300 299 299 300 301 301 301 300 299 298 298 299 298 297 297 298 296 295 295 295 295 294
305 305 303 303 303 303 302 302 300 300 299 298 298 298 299 300 300 299 300 301 302 302 302 301 301 301 300 300 300 299 298 298 297 297 296 296 296 296
303 303 304 303 301 301 300 300 300 300 300 299 298 298 300 301 300 300 300 301 302 303 303 302 303 303 303 302 301 300 299 298 298 297 296 296 296 295
305 304 304 304 303 301 300 300 300 300 299 299 299 300 301 301 301 300 301 301 302 303 303 303 304 304 304 303 302 301 300 299 298 298 298 297 297 295
306 306 304 304 305 304 303 301 301 300 299 299 300 301 301 301 300 300 301 301 301 301 302 304 305 305 305 304 302 301 300 300 299 298 298 298 298 297
305 305 305 305 305 304 303 301 300 299 299 299 299 301 301 301 301 301 302 301 302 302 304 306 306 306 305 305 304 302 301 300 299 298 298 298 298 297
305 305 305 305 304 303 303 301 301 300 299 299 300 300 301 302 302 302 303 303 303 304 304 305 305 305 305 305 304 303 302 301 300 300 299 300 299 298
306 304 303 304 304 304 303 303 302 301 300 300 301 302 302 302 303 304 304 304 304 304 305 305 306 306 306 307 307 306 304 303 302 301 301 301 301 300
306 305 304 304 304 303 303 304 304 302 300 300 300 302 302 303 304 305 306 307 306 306 305 305 305 306 307 308 309 308 306 305 304 302 301 301 301 301
305 305 304 303 304 304 304 305 304 302 301 301 300 301 301 303 304 306 306 307 307 307 307 306 306 306 306 307 308 309 308 307 306 305 303 302 302 301
Height
5872 5871 5870 5868 5868 5867 5866 5865 5864 5863 5862 5861 5861 5860 5859 5859 5858 5858 5857 5856 5855 5854 5853 5852 5851 5849 5848 5846 5845 5844 5843 5841 5841 5840 5840 5840 5839 5839
5870 5868 5867 5866 5865 5864 5863 5862 5861 5861 5859 5858 5857 5856 5856 5855 5854 5854 5853 5852 5851 5849 5848 5847 5845 5844 5842 5841 5840 5838 5837 5836 5835 5834 5833 5833 5833 5832
5867 5866 5865 5864 5862 5861 5860 5859 5858 5857 5856 5855 5854 5853 5852 5852 5850 5849 5849 5848 5846 5845 5843 5842 5840 5838 5837 5835 5834 5832 5831 5830 5828 5827 5826 5825 5825 5824
5865 5863 5862 5861 5859 5858 5857 5856 5855 5854 5853 5852 5851 5849 5848 5847 5846 5845 5844 5843 5841 5840 5838 5836 5834 5833 5831 5829 5828 5826 5825 5823 5821 5820 5819 5818 5817 5816
5862 5860 5859 5857 5856 5855 5853 5852 5851 5850 5849 5848 5846 5845 5843 5842 5841 5840 5839 5837 5836 5834 5832 5830 5829 5827 5825 5823 5821 5820 5818 5816 5814 5812 5811 5810 5809 5807
5859 5857 5856 5854 5852 5851 5850 5848 5847 5845 5844 5843 5841 5840 5839 5837 5836 5834 5833 5831 5830 5828 5826 5825 5823 5821 5819 5817 5815 5813 5811 5809 5807 5805 5803 5802 5800 5799
5856 5854 5852 5850 5848 5847 5845 5844 5842 5840 5839 5838 5836 5834 5833 5831 5830 5828 5827 5825 5823 5821 5820 5818 5816 5814 5812 5810 5808 5806 5803 5801 5799 5797 5795 5793 5792 5790
5852 5850 5848 5846 5844 5842 5840 5839 5837 5835 5834 5833 5831 5829 5827 5825 5824 5822 5820 5818 5817 5816 5813 5811 5809 5807 5805 5803 5800 5798 5796 5794 5791 5789 5787 5785 5783 5782
5848 5846 5844 5842 5840 5837 5835 5833 5832 5830 5828 5827 5825 5823 5822 5820 5818 5816 5814 5812 5810 5808 5806 5804 5802 5799 5797 5794 5792 5790 5788 5786 5783 5781 5778 5776 5774 5773
5844 5841 5839 5837 5834 5832 5830 5828 5826 5824 5822 5820 5819 5817 5815 5813 5812 5809 5807 5805 5803 5801 5799 5797 5794 5792 5789 5787 5785 5782 5780 5777 5775 5772 5770 5768 5765 5763
5839 5836 5834 5832 5829 5827 5825 5822 5820 5818 5816 5814 5812 5811 5809 5807 5805 5803 5801 5798 5796 5794 5792 5790 5787 5785 5782 5779 5776 5774 5771 5769 5766 5764 5761 5759 5756 5754
5834 5831 5829 5826 5824 5821 5819 5817 5814 5812 5810 5808 5807 5805 5802 5800 5798 5796 5794 5791 5789 5787 5784 5782 5779 5777 5775 5772 5768 5766 5763 5760 5758 5755 5752 5750 5747 5745
5828 5825 5822 5820 5817 5815 5812 5810 5808 5806 5804 5802 5800 5798 5796 5794 5791 5789 5786 5784 5781 5779 5777 5774 5771 5768 5766 5764 5761 5758 5755 5752 5749 5746 5743 5740 5737 5735
5821 5819 5816 5813 5811 5808 5806 5803 5801 5799 5797 5795 5793 5791 5789 5787 5784 5781 5778 5776 5773 5771 5769 5766 5763 5760 5757 5755 5753 5750 5746 5743 5740 5737 5734 5731 5728 5725
5814 5812 5809 5806 5804 5801 5799 5796 5794 5792 5790 5788 5786 5784 5781 5779 5776 5774 5771 5768 5765 5763 5760 5757 5754 5751 5749 5746 5743 5740 5737 5734 5731 5728 5725 5722 5719 5716
5808 5805 5802 5799 5796 5794 5792 5789 5787 5785 5782 5780 5778 5776 5773 5771 5769 5766 5763 5761 5758 5755 5752 5749 5746 5743 5740 5737 5734 5731 5728 5725 5722 5718 5715 5712 5709 5706
5801 5798 5795 5792 5789 5787 5784 5782 5780 5778 5775 5773 5770 5768 5765 5763 5761 5758 5756 5753 5750 5748 5745 5741 5738 5735 5732 5729 5726 5723 5719 5716 5713 5709 5706 5702 5699 5696
5794 5792 5789 5786 5783 5780 5778 5775 5773 5770 5767 5765 5762 5760 5758 5755 5753 5751 5748 5745 5742 5739 5736 5733 5730 5727 5724 5720 5717 5713 5710 5707 5704 5700 5696 5693 5689 5686
5787 5785 5782 5779 5776 5774 5771 5768 5765 5762 5759 5757 5755 5752 5750 5748 5745 5743 5740 5737 5734 5731 5728 5725 5722 5719 5716 5712 5708 5704 5701 5697 5694 5690 5687 5683 5680 5676
5780 5778 5775 5772 5769 5767 5764 5761 5758 5755 5752 5749 5747 5745 5743 5740 5738 5735 5732 5729 5726 5723 5720 5717 5713 5710 5706 5703 5700 5696 5691 5688 5684 5681 5677 5673 5669 5666
5774 5771 5768 5765 5763 5760 5756 5753 5751 5748 5745 5742 5740 5738 5735 5733 5730 5727 5724 5721 5718 5715 5711 5708 5705 5701 5697 5694 5690 5686 5682 5678 5674 5671 5667 5663 5660 5656
5767 5764 5761 5758 5755 5752 5750 5747 5744 5741 5738 5735 5733 5730 5728 5725 5722 5719 5716 5713 5709 5706 5703 5700 5696 5692 5688 5685 5681 5677 5673 5669 5665 5661 5657 5654 5650 5646
5760 5757 5754 5751 5748 5745 5742 5740 5737 5734 5731 5728 5726 5723 5720 5717 5714 5711 5708 5704 5701 5698 5695 5691 5687 5683 5679 5676 5672 5668 5664 5660 5656 5652 5649 5644 5640 5637